FW8380 Weather Reports


time (UTC)temp
F
wind
direction
speed
knots
gust
knots
rain 1hr
in
rain 24hr
in
rain mn
in
humidity
%
barometer
mb
20260506160109 67 0 0.0 0.0 0.00 0.00 0.00 75 1017.5
20260506155540 66 0 0.0 0.0 0.00 0.00 0.00 75 1017.5
20260506155040 64 0 0.0 0.9 0.00 0.00 0.00 76 1017.6
20260506154556 64 0 0.0 0.9 0.00 0.00 0.00 76 1017.5
20260506154040 63 218 0.0 0.9 0.00 0.00 0.00 80 1017.5
20260506153544 62 0 0.0 0.0 0.00 0.00 0.00 81 1017.7
20260506153050 61 0 0.0 0.0 0.00 0.00 0.00 83 1017.6
20260506152540 61 0 0.0 0.0 0.00 0.00 0.00 84 1017.7
20260506152043 59 0 0.0 0.0 0.00 0.00 0.00 87 1017.8
20260506151556 59 0 0.0 0.0 0.00 0.00 0.00 86 1017.8
20260506151036 58 0 0.0 0.0 0.00 0.00 0.00 86 1017.9
20260506150539 58 0 0.0 0.0 0.00 0.00 0.00 89 1017.9
20260506145538 55 0 0.0 0.9 0.00 0.01 0.00 92 1017.8
20260506145040 54 0 0.0 0.9 0.00 0.01 0.00 92 1017.9
20260506144552 54 0 0.0 0.9 0.00 0.01 0.00 93 1017.9
20260506144040 53 0 0.0 0.0 0.00 0.01 0.00 95 1017.8
20260506143537 52 0 0.0 0.0 0.00 0.01 0.00 96 1017.9
20260506143053 52 0 0.0 0.9 0.00 0.01 0.00 97 1017.8
20260506142540 51 0 0.0 0.9 0.00 0.01 0.00 97 1017.8
20260506142039 51 0 0.0 0.0 0.00 0.01 0.00 97 1017.7
20260506141546 50 0 0.0 0.0 0.00 0.01 0.00 97 1017.6
20260506141040 49 0 0.0 0.0 0.00 0.01 0.00 97 1017.6
20260506140540 48 0 0.0 0.0 0.00 0.01 0.00 97 1017.5
20260506140055 48 0 0.0 0.0 0.00 0.01 0.00 97 1017.5
20260506135540 48 0 0.0 0.0 0.00 0.02 0.00 97 1017.5
20260506135039 48 0 0.0 0.0 0.00 0.02 0.00 97 1017.5
20260506134556 47 0 0.0 0.0 0.00 0.02 0.00 97 1017.4
20260506134042 47 0 0.0 0.0 0.00 0.02 0.00 97 1017.4
20260506133540 47 0 0.0 0.0 0.00 0.02 0.00 97 1017.3
20260506133107 47 0 0.0 0.0 0.00 0.02 0.00 97 1017.3
20260506132537 47 0 0.0 0.0 0.00 0.02 0.00 97 1017.3
20260506132043 47 0 0.0 0.0 0.00 0.02 0.00 97 1017.3
20260506131614 47 0 0.0 0.0 0.00 0.02 0.00 97 1017.2
20260506131042 47 0 0.0 0.0 0.00 0.02 0.00 97 1017.2
20260506130540 47 0 0.0 0.0 0.00 0.02 0.00 97 1017.2
20260506130048 47 0 0.0 0.0 0.00 0.02 0.00 97 1017.2
20260506125539 47 0 0.0 0.0 0.00 0.03 0.00 97 1017.1
20260506125039 47 0 0.0 0.0 0.00 0.03 0.00 97 1017.0
20260506124550 47 0 0.0 0.0 0.00 0.03 0.00 97 1016.9
20260506124039 48 0 0.0 0.0 0.00 0.03 0.00 97 1017.1
20260506123542 48 0 0.0 0.0 0.00 0.03 0.00 97 1017.1
20260506123050 48 0 0.0 0.0 0.00 0.03 0.00 97 1017.0
20260506122540 48 0 0.0 0.0 0.00 0.03 0.00 96 1017.0
20260506122041 48 0 0.0 0.0 0.00 0.03 0.00 96 1016.9
20260506121554 48 0 0.0 0.0 0.00 0.03 0.00 96 1017.0
20260506121037 48 0 0.0 0.0 0.00 0.03 0.00 97 1017.0
20260506120540 48 0 0.0 0.0 0.00 0.03 0.00 97 1016.8
20260506115537 48 0 0.0 0.0 0.00 0.03 0.00 96 1017.0
20260506115040 48 0 0.0 0.9 0.00 0.03 0.00 96 1016.9
20260506114546 48 0 0.0 0.9 0.00 0.03 0.00 96 1017.0
20260506114044 48 0 0.0 1.7 0.00 0.03 0.00 96 1016.9
20260506113540 49 0 0.0 1.7 0.00 0.03 0.00 97 1016.9
20260506113054 49 0 0.0 0.0 0.00 0.03 0.00 97 1016.8
20260506112540 49 0 0.0 0.0 0.00 0.03 0.00 96 1016.8
20260506112037 49 0 0.0 0.0 0.00 0.03 0.00 96 1016.8
20260506111548 49 0 0.0 0.0 0.00 0.03 0.00 96 1016.7
20260506111037 49 0 0.0 0.0 0.00 0.03 0.00 96 1016.7
20260506110537 49 0 0.0 0.0 0.00 0.03 0.00 96 1016.7
20260506110101 49 0 0.0 0.0 0.00 0.03 0.00 97 1016.8
20260506105540 49 0 0.0 0.0 0.00 0.03 0.00 96 1016.7
20260506105042 49 0 0.0 0.0 0.00 0.03 0.00 96 1016.7
20260506104558 49 0 0.0 0.0 0.00 0.03 0.00 96 1016.7
20260506104040 49 0 0.0 0.0 0.00 0.03 0.00 96 1016.7
20260506103540 50 0 0.0 0.0 0.00 0.03 0.00 97 1016.5
20260506103050 50 0 0.0 0.0 0.00 0.03 0.00 97 1016.6
20260506102542 50 0 0.0 0.0 0.00 0.03 0.00 96 1016.5
20260506102042 49 0 0.0 0.0 0.00 0.03 0.00 96 1016.5
20260506101549 49 0 0.0 0.0 0.00 0.03 0.00 96 1016.4
20260506101037 49 0 0.0 0.0 0.00 0.03 0.00 96 1016.3
20260506100540 49 0 0.0 0.0 0.00 0.03 0.00 96 1016.3
20260506100058 49 0 0.0 0.0 0.00 0.03 0.00 96 1016.2
20260506095539 49 0 0.0 0.0 0.00 0.04 0.00 96 1016.2
20260506095036 49 0 0.0 0.0 0.00 0.04 0.00 96 1016.1
20260506094550 50 0 0.0 0.0 0.00 0.04 0.00 96 1016.1
20260506094040 50 0 0.0 0.0 0.00 0.04 0.00 96 1016.1
20260506093537 50 0 0.0 0.0 0.00 0.04 0.00 96 1016.1
20260506093046 50 0 0.0 0.0 0.00 0.04 0.00 96 1016.0
20260506092540 50 0 0.0 0.0 0.00 0.04 0.00 96 1016.0
20260506092040 50 0 0.0 0.0 0.00 0.04 0.00 96 1015.9
20260506091545 50 0 0.0 0.0 0.00 0.04 0.00 96 1015.9
20260506091040 50 0 0.0 0.0 0.00 0.04 0.00 96 1016.0
20260506090540 50 0 0.0 0.0 0.00 0.04 0.00 96 1015.9
20260506090048 50 0 0.0 0.0 0.00 0.04 0.00 96 1015.8
20260506085539 50 0 0.0 0.0 0.00 0.06 0.00 95 1015.8
20260506085039 50 0 0.0 0.0 0.00 0.06 0.00 95 1015.7
20260506084616 50 0 0.0 0.0 0.00 0.06 0.00 95 1015.8
20260506084039 50 0 0.0 0.0 0.00 0.06 0.00 95 1015.7
20260506083538 51 0 0.0 0.0 0.00 0.06 0.00 95 1016.0
20260506083049 51 0 0.0 0.0 0.00 0.06 0.00 95 1016.1
20260506082541 51 0 0.0 0.0 0.00 0.06 0.00 96 1016.0
20260506082036 51 0 0.0 0.0 0.00 0.06 0.00 96 1016.0
20260506081556 51 0 0.0 0.0 0.00 0.06 0.00 95 1016.1
20260506081040 51 0 0.0 0.0 0.00 0.06 0.00 95 1016.2
20260506080540 51 0 0.0 0.0 0.00 0.06 0.00 95 1016.3
20260506073047 51 0 0.0 0.0 0.00 0.09 0.00 95 1016.4
20260506072539 52 0 0.0 0.0 0.00 0.09 0.00 95 1016.1
20260506072039 52 0 0.0 0.0 0.00 0.09 0.00 95 1016.0
20260506071548 52 0 0.0 0.0 0.00 0.09 0.00 95 1016.0
20260506071039 52 0 0.0 0.0 0.00 0.09 0.00 95 1015.8
20260506070540 52 0 0.0 0.0 0.00 0.09 0.00 95 1015.7
20260506062039 52 0 0.0 0.0 0.00 0.10 0.09 94 1015.1
20260506061548 52 0 0.0 0.0 0.00 0.10 0.09 93 1015.0
20260506061039 52 0 0.0 0.0 0.00 0.10 0.09 93 1015.1
20260506060540 53 0 0.0 0.0 0.00 0.10 0.09 93 1015.1
20260506051039 54 0 0.0 0.0 0.00 0.10 0.09 92 1014.7
20260506050539 54 0 0.0 0.0 0.00 0.10 0.09 91 1014.7
20260506045041 55 0 0.0 0.0 0.00 0.10 0.09 90 1014.4
20260506044548 55 0 0.0 0.0 0.00 0.10 0.09 90 1014.4
20260506044041 55 0 0.0 0.0 0.00 0.10 0.09 90 1014.4
20260506043537 55 0 0.0 0.0 0.00 0.10 0.09 90 1014.3
20260506043048 55 0 0.0 0.0 0.00 0.10 0.09 89 1014.2
20260506042540 55 0 0.0 0.0 0.00 0.10 0.09 89 1014.2
20260506042040 56 0 0.0 0.0 0.00 0.10 0.09 88 1014.1
20260506041602 56 0 0.0 0.0 0.00 0.10 0.09 88 1014.1
20260506041039 56 0 0.0 0.0 0.00 0.10 0.09 87 1014.1
20260506040539 56 0 0.0 0.0 0.00 0.10 0.09 87 1014.0
20260506040054 56 0 0.0 0.0 0.00 0.10 0.09 86 1013.9
20260506035539 57 0 0.0 0.0 0.00 0.10 0.09 86 1013.9
20260506035039 57 0 0.0 0.0 0.00 0.10 0.09 85 1013.9
20260506034553 57 0 0.0 0.0 0.00 0.10 0.09 84 1013.9
20260506034041 58 0 0.0 0.0 0.00 0.10 0.09 84 1013.8
20260506033539 58 0 0.0 0.0 0.00 0.10 0.09 83 1013.7
20260506033051 58 0 0.0 0.0 0.00 0.10 0.09 81 1013.6
20260506032541 59 0 0.0 0.0 0.00 0.10 0.09 81 1013.6
20260506032038 59 0 0.0 0.0 0.00 0.10 0.09 80 1013.5
20260506031551 60 0 0.0 0.0 0.00 0.10 0.09 78 1013.4
20260506031037 60 0 0.0 0.0 0.00 0.10 0.09 78 1013.3
20260506030539 60 0 0.0 0.9 0.00 0.10 0.09 78 1013.4
20260506030049 60 0 0.0 1.7 0.00 0.10 0.09 77 1013.3
20260506025539 60 0 0.0 1.7 0.00 0.10 0.09 77 1013.3
20260506025039 61 356 0.0 0.9 0.00 0.10 0.09 77 1013.4
20260506024552 61 359 0.0 0.9 0.00 0.10 0.09 76 1013.4
20260506024040 61 0 0.0 0.9 0.00 0.10 0.09 76 1013.2
20260506023540 61 0 0.0 3.5 0.00 0.10 0.09 75 1013.3
20260506023102 61 11 0.0 3.5 0.00 0.10 0.09 75 1013.2
20260506022539 61 339 0.0 2.6 0.00 0.10 0.09 75 1013.2
20260506022039 62 5 0.0 2.6 0.00 0.10 0.09 75 1013.1
20260506021609 62 0 0.0 0.9 0.00 0.10 0.09 74 1013.1
20260506021044 62 0 0.0 0.9 0.00 0.10 0.09 74 1013.0
20260506020539 62 0 0.0 0.9 0.00 0.10 0.09 74 1013.1
20260506020050 62 0 0.0 0.9 0.00 0.10 0.09 74 1013.0
20260506015541 62 0 0.0 0.0 0.00 0.10 0.09 74 1012.9
20260506015044 62 0 0.0 0.0 0.00 0.10 0.09 74 1012.9
20260506014553 62 0 0.0 0.9 0.00 0.10 0.09 73 1012.8
20260506014042 62 0 0.0 0.9 0.00 0.10 0.09 73 1012.8
20260506013541 62 17 0.0 0.9 0.00 0.10 0.09 74 1012.8
20260506013057 62 0 0.0 0.9 0.00 0.10 0.09 74 1012.9
20260506012539 62 0 0.0 1.7 0.00 0.10 0.09 74 1013.0
20260506012040 62 0 0.0 1.7 0.00 0.10 0.09 73 1013.0
20260506011606 62 0 0.0 1.7 0.00 0.10 0.09 74 1012.9
20260506011039 62 312 0.0 2.6 0.00 0.10 0.09 74 1013.1
20260506010539 62 0 0.0 2.6 0.00 0.10 0.09 74 1013.0
20260506010057 62 348 0.0 1.7 0.00 0.10 0.09 73 1013.0
20260506005543 62 0 0.0 0.9 0.00 0.10 0.09 74 1013.1
20260506005038 62 0 0.0 1.7 0.00 0.10 0.09 74 1013.0
20260506004550 62 19 0.0 1.7 0.00 0.10 0.09 74 1013.0
20260506004039 62 23 0.0 0.9 0.00 0.10 0.09 73 1013.0
20260506003536 62 0 0.0 0.0 0.00 0.10 0.09 72 1013.0
20260506003049 62 0 0.0 0.9 0.00 0.10 0.09 73 1013.0
20260506002539 62 0 0.0 0.9 0.00 0.10 0.09 73 1013.0
20260506002039 62 0 0.0 0.9 0.00 0.10 0.09 72 1012.9
20260506001555 62 0 0.0 0.9 0.00 0.10 0.09 72 1012.9
20260506001037 62 0 0.0 0.9 0.00 0.10 0.09 73 1012.9
20260506000542 62 0 0.0 0.9 0.00 0.10 0.09 73 1012.8
20260506000054 62 0 0.0 0.9 0.00 0.10 0.09 73 1012.8
20260505235539 62 0 0.0 1.7 0.00 0.10 0.09 74 1012.8
20260505235039 62 0 0.0 2.6 0.00 0.10 0.09 73 1012.8
20260505234552 62 0 0.0 3.5 0.00 0.10 0.09 73 1012.7
20260505234039 62 0 0.0 3.5 0.00 0.10 0.09 72 1012.7
20260505233540 62 359 0.9 2.6 0.00 0.10 0.09 72 1012.7
20260505233053 63 334 0.0 1.7 0.00 0.10 0.09 72 1012.7
20260505232539 63 20 0.0 1.7 0.00 0.10 0.09 72 1012.6
20260505232044 63 0 0.0 4.3 0.00 0.10 0.09 71 1012.6
20260505231608 63 0 0.0 4.3 0.00 0.10 0.09 70 1012.6
20260505231039 63 19 0.9 4.3 0.00 0.10 0.09 71 1012.7
20260505230539 62 0 0.0 4.3 0.00 0.10 0.09 72 1012.5
20260505230053 63 335 0.9 2.6 0.00 0.10 0.09 71 1012.6
20260505225539 63 0 0.0 0.0 0.00 0.10 0.09 71 1012.5
20260505225039 62 0 0.0 1.7 0.00 0.10 0.09 72 1012.7
20260505224555 62 0 0.0 2.6 0.00 0.10 0.09 72 1012.7
20260505224040 62 334 0.0 4.3 0.00 0.10 0.09 72 1012.6
20260505223542 62 0 0.9 4.3 0.00 0.10 0.09 74 1012.7
20260505223053 61 0 0.0 0.9 0.00 0.10 0.09 74 1012.7
20260505222545 61 0 0.0 0.9 0.00 0.10 0.09 74 1012.7
20260505222041 61 0 0.0 0.9 0.00 0.10 0.09 75 1012.8
20260505221602 61 0 0.0 0.9 0.00 0.10 0.09 74 1012.8
20260505221042 62 0 0.0 0.0 0.00 0.10 0.09 74 1012.8
20260505220540 62 0 0.0 0.9 0.00 0.10 0.09 74 1012.8
20260505220100 62 0 0.0 0.9 0.00 0.10 0.09 75 1012.8
20260505215541 62 0 0.0 0.9 0.00 0.10 0.09 73 1012.8
20260505215040 62 0 0.0 0.9 0.00 0.10 0.09 73 1012.8
20260505214556 62 0 0.0 0.9 0.00 0.10 0.09 73 1012.8
20260505214043 62 0 0.0 0.9 0.00 0.10 0.09 73 1012.9
20260505213541 62 0 0.0 0.9 0.00 0.10 0.09 74 1012.9
20260505213052 62 225 0.0 0.9 0.00 0.10 0.09 74 1012.9
20260505212541 62 0 0.0 0.9 0.00 0.10 0.09 75 1012.8
20260505212041 63 0 0.0 0.9 0.00 0.10 0.09 73 1012.9
20260505211549 63 0 0.0 0.9 0.00 0.10 0.09 73 1013.0
20260505211043 63 0 0.0 0.9 0.00 0.10 0.09 72 1013.0
20260505210541 63 0 0.0 0.9 0.00 0.10 0.09 73 1012.9
20260505210051 63 0 0.0 0.9 0.00 0.10 0.09 72 1013.0
20260505205542 63 0 0.0 0.9 0.00 0.10 0.09 71 1012.9
20260505205041 63 0 0.0 0.9 0.00 0.10 0.09 73 1012.9
20260505204553 63 0 0.0 2.6 0.00 0.10 0.09 74 1012.9
20260505204041 63 0 0.0 2.6 0.00 0.10 0.09 73 1012.9
20260505203545 63 218 0.0 4.3 0.00 0.10 0.09 72 1013.0
20260505203110 63 0 0.9 4.3 0.00 0.10 0.09 73 1012.9
20260505202540 62 0 0.0 0.9 0.00 0.10 0.09 73 1012.9
20260505202040 62 209 0.0 0.9 0.00 0.10 0.09 74 1012.9
20260505201600 62 0 0.0 2.6 0.00 0.10 0.09 76 1013.0
20260505201041 61 0 0.0 2.6 0.00 0.10 0.09 76 1013.0
20260505200541 61 0 0.0 0.9 0.00 0.10 0.09 75 1013.0
20260505200053 61 0 0.0 0.9 0.00 0.10 0.09 74 1013.0
20260505195544 61 0 0.0 0.9 0.00 0.10 0.09 75 1013.2
20260505195041 61 0 0.0 1.7 0.00 0.10 0.09 77 1013.1
20260505194548 61 0 0.0 2.6 0.00 0.10 0.09 79 1013.1
20260505194040 60 210 0.0 2.6 0.00 0.10 0.09 78 1013.1
20260505193540 60 0 0.0 3.5 0.00 0.10 0.09 81 1013.1
20260505193052 60 0 0.0 3.5 0.00 0.10 0.09 80 1013.0
20260505192540 60 5 0.9 3.5 0.00 0.10 0.09 79 1013.1
20260505192042 60 0 0.0 2.6 0.00 0.10 0.09 83 1013.1
20260505191600 60 0 0.0 0.9 0.00 0.10 0.09 85 1013.1
20260505191039 60 0 0.0 0.0 0.00 0.10 0.09 86 1013.1
20260505190540 59 0 0.0 0.0 0.00 0.10 0.09 88 1013.0
20260505190051 59 0 0.0 1.7 0.00 0.10 0.09 95 1013.0
20260505185540 58 0 0.0 1.7 0.00 0.10 0.09 96 1013.1
20260505185040 58 0 0.0 2.6 0.00 0.10 0.09 96 1013.2
20260505184552 58 0 0.0 2.6 0.00 0.10 0.09 97 1013.1
20260505184040 57 0 0.0 2.6 0.00 0.10 0.09 96 1013.0
20260505183546 57 4 0.0 2.6 0.00 0.10 0.09 97 1013.1
20260505183050 57 231 0.0 3.5 0.00 0.10 0.09 97 1013.1
20260505182541 56 0 0.0 4.3 0.00 0.10 0.09 97 1013.0
20260505182042 56 343 0.0 4.3 0.00 0.10 0.09 97 1013.1
20260505181554 56 334 0.0 1.7 0.00 0.10 0.09 97 1013.0
20260505181040 55 224 0.0 2.6 0.00 0.10 0.09 97 1012.9
20260505180540 55 0 0.0 2.6 0.00 0.10 0.09 97 1013.0
20260505180100 55 320 0.0 1.7 0.00 0.10 0.09 98 1013.0
20260505175539 55 0 0.0 1.7 0.00 0.10 0.09 98 1013.0
20260505175042 55 0 0.0 2.6 0.00 0.10 0.09 98 1012.9
20260505174552 55 0 0.0 2.6 0.00 0.10 0.09 98 1012.9
20260505174042 55 25 0.0 1.7 0.00 0.10 0.09 98 1012.8
20260505173539 55 0 0.0 3.5 0.00 0.10 0.09 98 1012.8
20260505173056 55 11 0.0 3.5 0.00 0.10 0.09 98 1012.7
20260505172611 54 280 0.0 3.5 0.00 0.10 0.09 98 1012.7
20260505172039 53 0 0.0 2.6 0.00 0.10 0.09 98 1012.8
20260505171554 53 0 0.0 2.6 0.00 0.10 0.09 98 1012.8
20260505171042 53 6 0.0 2.6 0.00 0.10 0.09 98 1012.8
20260505170539 53 0 0.0 3.5 0.00 0.10 0.09 98 1012.7
20260505170108 53 0 0.0 3.5 0.00 0.10 0.09 98 1012.8
20260505165539 52 214 0.0 3.5 0.00 0.10 0.09 98 1012.7
20260505165043 52 0 0.0 3.5 0.00 0.10 0.09 98 1012.7
20260505164553 52 8 0.9 2.6 0.00 0.10 0.09 98 1012.8
20260505164040 52 0 0.0 2.6 0.00 0.10 0.09 98 1012.8
20260505163540 52 0 0.0 2.6 0.00 0.10 0.09 98 1012.7
20260505163053 52 23 0.0 3.5 0.00 0.10 0.09 98 1012.8
20260505162542 52 0 0.0 3.5 0.00 0.10 0.09 98 1012.8
20260505162041 52 0 0.0 0.9 0.00 0.10 0.09 98 1012.8
20260505161556 52 0 0.0 0.9 0.00 0.10 0.09 98 1012.7
20260505161041 52 0 0.0 0.9 0.00 0.10 0.09 98 1012.8
20260505160541 52 0 0.0 2.6 0.00 0.10 0.09 98 1012.8